[[{"header":{"parameterUnit":"m.s-1","parameterCategory":2,"la1":30.2991,"la2":30.254,"lo1":-89.0895,"lo2":-89.0444,"dy":0.0017,"dx":0.0017,"nx":28,"ny":28,"refTime":"2025-03-17T09:00:00:Z","depth":"0","parameterNumber":2,"parameterNumberName":"U-component_of_CURRENTS"},"data":[0,0,0,0,0,0,0,0,0,0,0,0,0,0,0,0,0,0,0,0,0,0,0,0,0,0,0,0,0,0,0,0,0,0,0,0,0,0,0,0,0,0,0,0,0,0,0,0,0,0,0,0,0,0,0,0,0,0,0.3481,0.3479,0,0.3329,0.3327,0.3325,0.3295,0.3296,0.3298,0.33,0.3177,0.3172,0.3167,0,0,0,0,0,0,0,0,0,0,0,0,0,0.367,0.3667,0.3481,0.3479,0.3478,0.333,0.3327,0.3324,0.3294,0.3296,0.3299,0.3301,0.3178,0.3172,0.3166,0,0,0,0,0,0,0,0,0,0,0,0,0,0.3554,0.3666,0.3481,0.345,0.3447,0.333,0.3327,0.3323,0.3294,0.3296,0.3299,0.3302,0.318,0.3173,0.3166,0.3066,0,0,0.3143,0.314,0,0,0,0,0,0,0,0,0.3561,0.3546,0.3456,0.3452,0.3448,0.334,0.3349,0.3241,0.3293,0.3345,0.33,0.3303,0.3236,0.3224,0.318,0.306,0.3055,0.3142,0.3138,0.3135,0.3133,0,0,0,0,0,0,0,0.3569,0.3552,0.3414,0.3455,0.345,0.342,0.3406,0.3327,0.3272,0.334,0.3339,0.3332,0.3234,0.3187,0.3177,0.3053,0.3143,0.3136,0.3131,0.3128,0.2939,0.2939,0,0,0,0,0,0,0.3601,0.356,0.3419,0.341,0.352,0.3415,0.3399,0.3366,0.3272,0.3263,0.333,0.3332,0.3198,0.3186,0.3173,0.3157,0.3135,0.3128,0.3123,0.294,0.2939,0.2939,0,0,0,0,0,0,0.3605,0.3589,0.3425,0.3489,0.3467,0.341,0.3372,0.3362,0.3331,0.3266,0.3256,0.3315,0.32,0.3183,0.3113,0.3149,0.3124,0.3118,0.2941,0.294,0.2939,0.3057,0,0,0,0,0,0,0.3611,0.359,0.3567,0.349,0.3465,0.3368,0.337,0.3357,0.3326,0.3326,0.3248,0.3239,0.3201,0.3124,0.3106,0.3138,0.3112,0.2941,0.294,0.2939,0.3054,0.3061,0.3066,0,0,0,0,0,0.3618,0.3559,0.3565,0.3549,0.3436,0.3368,0.3351,0.3316,0.3323,0.33,0.3252,0.3242,0.3106,0.3116,0.3095,0.3127,0.2942,0.2941,0.2939,0.3051,0.3059,0.3066,0,0,0,0,0,0,0.3607,0.3549,0.3555,0.3477,0.3444,0.3367,0.3329,0.3317,0.3254,0.3259,0.3208,0.3193,0.3152,0.3102,0.3115,0.3066,0.3031,0.3026,0.3124,0.3131,0.3137,0.3212,0.3106,0,0,0,0,0,0.3603,0.3551,0.3511,0.3449,0.3438,0.339,0.3357,0.3342,0.3285,0.3261,0.3212,0.3162,0.3121,0.3099,0.3038,0.2989,0.3021,0.3,0.3007,0.3012,0.3056,0.3139,0.316,0.2934,0.2934,0.2934,0,0,0.3574,0.3541,0.3506,0.3446,0.3413,0.3401,0.3374,0.3327,0.3328,0.3254,0.3218,0.3168,0.3107,0.3071,0.3051,0.3042,0.3084,0.3011,0.3017,0.3058,0.3141,0.3164,0.3184,0.2934,0.2934,0.2934,0,0,0.353,0.3477,0.3452,0.3434,0.3409,0.3383,0.3383,0.3327,0.3316,0.3264,0.3237,0.3223,0.311,0.3118,0.3099,0.3095,0.3107,0.3057,0.3159,0.3238,0.326,0.328,0.3332,0.3356,0.307,0.307,0.307,0,0.3514,0.3485,0.3432,0.3431,0.343,0.3392,0.3403,0.3367,0.3299,0.331,0.3271,0.3206,0.3155,0.3183,0.3187,0.3122,0.315,0.3144,0.3256,0.3276,0.3294,0.3343,0.3368,0.3076,0.3075,0.3074,0.3074,0,0.349,0.3475,0.3454,0.3458,0.3439,0.3424,0.3411,0.3396,0.3379,0.3368,0.3372,0.3308,0.3296,0.3271,0.3224,0.3322,0.3293,0.3255,0.326,0.3326,0.337,0.3394,0.3084,0.3082,0.308,0.3079,0,0,0.3449,0.3447,0.3448,0.3476,0.3466,0.3447,0.3462,0.3479,0.3509,0.3467,0.3518,0.3475,0.3471,0.3452,0.341,0.3477,0.3614,0.3428,0.3429,0.352,0.3781,0.3566,0.3571,0.3599,0.3604,0.3608,0.3757,0,0.3471,0.3494,0.3487,0.3513,0.3529,0.3524,0.3542,0.3552,0.3545,0.3567,0.3577,0.3576,0.353,0.3528,0.36,0.359,0.3683,0.3577,0.367,0.3673,0.3508,0.3594,0.3383,0.348,0.378,0.3784,0.3787,0,0.3465,0.3499,0.3536,0.3578,0.3587,0.3596,0.3645,0.3655,0.3692,0.3693,0.3739,0.3715,0.3798,0.3736,0.3864,0.3794,0.3823,0.3829,0.3834,0.3621,0.3502,0.3461,0.3512,0.3423,0.3823,0.382,0.3818,0,0.3468,0.352,0.3559,0.357,0.3613,0.3642,0.3667,0.37,0.3713,0.3781,0.3789,0.3884,0.3893,0.3987,0.3966,0.3943,0.4086,0.4052,0.3909,0.3893,0.3727,0.3685,0.374,0.4205,0.4205,0.4205,0.4204,0,0.3468,0.3492,0.3567,0.3582,0.3621,0.3668,0.3702,0.3728,0.3793,0.3777,0.3856,0.3852,0.3957,0.4003,0.4038,0.4018,0.4156,0.3965,0.3933,0.3749,0.371,0.3629,0.3594,0.421,0.4209,0.4208,0.4207,0,0.34,0.3458,0.3495,0.3588,0.3598,0.362,0.3665,0.3681,0.3772,0.3757,0.3779,0.3863,0.39,0.3975,0.4087,0.4053,0.3957,0.4057,0.3805,0.3738,0.3472,0.3448,0.3371,0.3278,0.3957,0.3953,0.3949,0,0.334,0.3364,0.3451,0.3446,0.3469,0.3514,0.3507,0.3621,0.3618,0.3706,0.367,0.3755,0.3733,0.3834,0.3803,0.3855,0.3796,0.3678,0.3596,0.3455,0.3411,0.3314,0.3238,0.3439,0.3431,0.3425,0.342,0,0.3228,0.3271,0.3297,0.3318,0.3317,0.3321,0.3336,0.3355,0.3443,0.3471,0.348,0.3515,0.3538,0.3466,0.35,0.3497,0.3453,0.3546,0.3506,0.3098,0.2901,0.2793,0.3335,0.3366,0.3371,0.3375,0.3378,0.338,0.3097,0.3094,0.3142,0.3147,0.314,0.3123,0.3095,0.3125,0.3144,0.315,0.324,0.3224,0.3202,0.3201,0.3176,0.2963,0.3046,0.2886,0.2905,0.2848,0.2636,0.3018,0.292,0.2923,0.2925,0.2927,0.2929,0,0.2935,0.2964,0.2958,0.296,0.2911,0.297,0.2949,0.2913,0.2882,0.291,0.2922,0.2833,0.2743,0.2712,0.2506,0.238,0.2326,0.2319,0.2207,0.2194,0.2639,0.2489,0.2162,0.2162,0.2162,0.2162,0.2162,0.2162,0.2843,0.2818,0.2853,0.2751,0.2736,0.2639,0.2617,0.2583,0.2589,0.25,0.2423,0.2436,0.2391,0.2236,0.2032,0.1976,0.1883,0.1728,0.1821,0.2191,0.2248,0.2302,0.2156,0.1764,0.1763,0.1265,0.1261,0.1258]},{"header":{"parameterUnit":"m.s-1","parameterCategory":2,"la1":30.2991,"la2":30.254,"lo1":-89.0895,"lo2":-89.0444,"dy":0.0017,"dx":0.0017,"nx":28,"ny":28,"refTime":"2025-03-17T09:00:00:Z","depth":"0","parameterNumber":3,"parameterNumberName":"V-component_of_CURRENTS"},"data":[0,0,0,0,0,0,0,0,0,0,0,0,0,0,0,0,0,0,0,0,0,0,0,0,0,0,0,0,0,0,0,0,0,0,0,0,0,0,0,0,0,0,0,0,0,0,0,0,0,0,0,0,0,0,0,0,0,0,-0.168,-0.1681,0,-0.1784,-0.1785,-0.1787,-0.1833,-0.1833,-0.1832,-0.1832,-0.193,-0.1932,-0.1935,0,0,0,0,0,0,0,0,0,0,0,0,0,-0.1539,-0.1541,-0.168,-0.1681,-0.1682,-0.1784,-0.1785,-0.1787,-0.1833,-0.1833,-0.1832,-0.1832,-0.1929,-0.1932,-0.1935,0,0,0,0,0,0,0,0,0,0,0,0,0,-0.1618,-0.1542,-0.168,-0.1717,-0.1721,-0.1784,-0.1786,-0.1787,-0.1833,-0.1833,-0.1832,-0.1832,-0.1928,-0.1932,-0.1936,-0.1969,0,0,-0.1949,-0.1951,0,0,0,0,0,0,0,0,-0.1614,-0.1623,-0.171,-0.1714,-0.1719,-0.1794,-0.1772,-0.1847,-0.1833,-0.1792,-0.1832,-0.1832,-0.1883,-0.1891,-0.1913,-0.1973,-0.1977,-0.1949,-0.1952,-0.1953,-0.1955,0,0,0,0,0,0,0,-0.1608,-0.1619,-0.1722,-0.1711,-0.1717,-0.1734,-0.1745,-0.1786,-0.1839,-0.1795,-0.1799,-0.1809,-0.1886,-0.1909,-0.1916,-0.1979,-0.1949,-0.1953,-0.1955,-0.1957,-0.2015,-0.2014,0,0,0,0,0,0,-0.1593,-0.1614,-0.1719,-0.1725,-0.1663,-0.1737,-0.1749,-0.1771,-0.1839,-0.1848,-0.1809,-0.181,-0.1902,-0.1911,-0.1919,-0.1899,-0.1953,-0.1957,-0.196,-0.2016,-0.2015,-0.2014,0,0,0,0,0,0,-0.159,-0.1602,-0.1715,-0.167,-0.1686,-0.174,-0.1764,-0.1774,-0.1799,-0.1849,-0.1859,-0.1825,-0.1902,-0.1913,-0.1949,-0.1905,-0.1959,-0.1963,-0.2017,-0.2016,-0.2015,-0.1898,0,0,0,0,0,0,-0.1586,-0.1601,-0.1613,-0.167,-0.1688,-0.1748,-0.1765,-0.1776,-0.1805,-0.1808,-0.1866,-0.1874,-0.1903,-0.1942,-0.1953,-0.1912,-0.1966,-0.2019,-0.2017,-0.2015,-0.1903,-0.1893,-0.1884,0,0,0,0,0,-0.1581,-0.1599,-0.1614,-0.1626,-0.1703,-0.1748,-0.1759,-0.1796,-0.1806,-0.1818,-0.185,-0.1873,-0.1937,-0.1946,-0.1958,-0.1917,-0.202,-0.2017,-0.2015,-0.1907,-0.1895,-0.1884,0,0,0,0,0,0,-0.1545,-0.1607,-0.1624,-0.1661,-0.1698,-0.1755,-0.1769,-0.1797,-0.1834,-0.183,-0.1879,-0.189,-0.1899,-0.1935,-0.1943,-0.1929,-0.1975,-0.1975,-0.1889,-0.1877,-0.1868,-0.1796,-0.197,0,0,0,0,0,-0.1543,-0.1572,-0.1627,-0.1654,-0.1669,-0.1719,-0.1742,-0.1764,-0.1803,-0.182,-0.1859,-0.1887,-0.1901,-0.1912,-0.1942,-0.1948,-0.1895,-0.1925,-0.1916,-0.1907,-0.1857,-0.1761,-0.1736,-0.2007,-0.2007,-0.2007,0,0,-0.1532,-0.1573,-0.1587,-0.1648,-0.1677,-0.1679,-0.1732,-0.1758,-0.1747,-0.1824,-0.1826,-0.1866,-0.19,-0.1895,-0.19,-0.1917,-0.1799,-0.1904,-0.1896,-0.185,-0.1756,-0.1729,-0.1705,-0.2005,-0.2006,-0.2006,0,0,-0.1506,-0.1563,-0.1562,-0.1592,-0.1632,-0.1658,-0.1663,-0.1715,-0.1725,-0.1746,-0.1775,-0.1779,-0.184,-0.1822,-0.1827,-0.1785,-0.1758,-0.181,-0.1693,-0.1602,-0.1577,-0.1554,-0.1424,-0.1391,-0.1796,-0.1796,-0.1796,0,-0.1481,-0.1491,-0.1567,-0.1568,-0.1567,-0.1639,-0.161,-0.1641,-0.1694,-0.1666,-0.1729,-0.173,-0.1784,-0.171,-0.1703,-0.1754,-0.169,-0.1734,-0.1582,-0.156,-0.1538,-0.141,-0.1375,-0.179,-0.1791,-0.1791,-0.1792,0,-0.1435,-0.1447,-0.1449,-0.1463,-0.1483,-0.1475,-0.1515,-0.1519,-0.1545,-0.1554,-0.1515,-0.158,-0.1555,-0.1589,-0.1642,-0.1515,-0.1511,-0.1585,-0.1598,-0.1503,-0.1375,-0.1341,-0.1781,-0.1784,-0.1785,-0.1787,0,0,-0.1293,-0.1397,-0.1375,-0.1362,-0.1415,-0.1406,-0.1392,-0.136,-0.1288,-0.1356,-0.1248,-0.1307,-0.1322,-0.1326,-0.138,-0.1324,-0.1147,-0.1387,-0.1385,-0.123,-0.0892,-0.0908,-0.0872,-0.1194,-0.1188,-0.1184,-0.085,0,-0.1194,-0.1182,-0.1252,-0.119,-0.1166,-0.1228,-0.1193,-0.1182,-0.118,-0.1107,-0.1137,-0.1084,-0.1227,-0.1196,-0.1161,-0.1155,-0.1055,-0.1226,-0.1029,-0.1021,-0.1026,-0.0833,-0.0846,-0.0552,-0.0816,-0.081,-0.0806,0,-0.1044,-0.1065,-0.1014,-0.1023,-0.1009,-0.0983,-0.0888,-0.0876,-0.0821,-0.0815,-0.0771,-0.0805,-0.0726,-0.0878,-0.0748,-0.0851,-0.0837,-0.0844,-0.0832,-0.0855,-0.0973,-0.0699,-0.0479,-0.0591,-0.0753,-0.0757,-0.0761,0,-0.0828,-0.085,-0.0802,-0.0809,-0.0851,-0.0798,-0.0793,-0.075,-0.0681,-0.0598,-0.0515,-0.0477,-0.0408,-0.0406,-0.0466,-0.0572,-0.0313,-0.046,-0.0434,-0.0434,-0.0405,-0.0414,-0.0244,-0.0308,-0.0308,-0.0309,-0.031,0,-0.0652,-0.0591,-0.0693,-0.066,-0.0542,-0.0626,-0.0472,-0.0467,-0.0391,-0.0257,-0.0332,-0.0196,-0.029,-0.0204,-0.0292,-0.0222,-0.0155,-0.0324,-0.0325,-0.0368,-0.0376,-0.0449,-0.0537,-0.0297,-0.03,-0.0302,-0.0304,0,-0.0413,-0.0494,-0.0427,-0.0461,-0.0445,-0.035,-0.0298,-0.0191,-0.0156,0.0029,0.0073,0.011,0.0207,0.0129,0.0178,0.0049,0.004,0.0076,0.0046,0.0033,-0.0114,-0.0196,0.0035,-0.0001,0.0198,0.02,0.0201,0,-0.0297,-0.0251,-0.0254,-0.0202,-0.021,-0.0113,-0.0041,-0.0043,0.006,0.0222,0.0341,0.0473,0.0576,0.0643,0.0456,0.0409,0.0226,0.0332,0.0099,-0.0031,-0.0121,-0.0201,-0.0257,0.0211,0.0213,0.0214,0.0215,0,-0.0068,-0.0079,-0.0055,0.0031,0.0108,0.0196,0.0286,0.0397,0.0426,0.0579,0.0777,0.0879,0.0898,0.083,0.0702,0.06,0.0245,0.0355,0.0247,-0.0035,-0.0125,-0.0195,-0.0088,0.0227,0.0226,0.0225,0.0224,0.0224,0.0115,0.0171,0.0181,0.0271,0.0357,0.0478,0.0571,0.0673,0.0852,0.1042,0.1102,0.127,0.1091,0.0908,0.075,0.0407,0.0383,0.0251,0.0197,0.0154,0.002,0.0168,0.0423,0.0423,0.0423,0.0423,0.0423,0,0.0299,0.0318,0.0416,0.0493,0.0604,0.0604,0.0763,0.0848,0.105,0.1261,0.142,0.1457,0.1245,0.0944,0.0489,0.0263,0.0129,0.0142,0.0017,-0.0014,0.0171,0.0059,0.0214,0.0214,0.0214,0.0214,0.0214,0.0214,0.0395,0.0484,0.049,0.0678,0.0746,0.0876,0.0958,0.11,0.1252,0.1507,0.1632,0.1715,0.1484,0.0705,0.0184,0.007,-0.0108,-0.011,-0.0181,-0.0118,-0.0115,-0.0112,-0.0237,-0.0147,-0.0147,-0.0377,-0.0379,-0.0381]}],[{"header":{"parameterUnit":"m.s-1","parameterCategory":2,"la1":30.2991,"la2":30.254,"lo1":-89.0895,"lo2":-89.0444,"dy":0.0017,"dx":0.0017,"nx":28,"ny":28,"refTime":"2025-03-17T09:00:00:Z","depth":"2","parameterNumber":2,"parameterNumberName":"U-component_of_CURRENTS"},"data":[0,0,0,0,0,0,0,0,0,0,0,0,0,0,0,0,0,0,0,0,0,0,0,0,0,0,0,0,0,0,0,0,0,0,0,0,0,0,0,0,0,0,0,0,0,0,0,0,0,0,0,0,0,0,0,0,0,0,0.1913,0.1914,0,0.203,0.2031,0.2033,0.2078,0.2078,0.2078,0.2078,0.2113,0.2114,0.2115,0,0,0,0,0,0,0,0,0,0,0,0,0,0.1908,0.1906,0.1913,0.1915,0.1916,0.203,0.2032,0.2033,0.2078,0.2078,0.2078,0.2078,0.2113,0.2114,0.2115,0,0,0,0,0,0,0,0,0,0,0,0,0,0.1953,0.1906,0.1912,0.1955,0.196,0.203,0.2032,0.2033,0.2078,0.2078,0.2078,0.2078,0.2113,0.2114,0.2116,0.2126,0,0,0.212,0.2121,0,0,0,0,0,0,0,0,0.195,0.1952,0.1947,0.1952,0.1958,0.2042,0.2043,0.2061,0.2078,0.203,0.2078,0.2077,0.2084,0.2088,0.2107,0.2128,0.2129,0.212,0.2121,0.2122,0.2122,0,0,0,0,0,0,0,0.1946,0.1949,0.1956,0.1949,0.1956,0.203,0.2034,0.2048,0.2052,0.2034,0.2038,0.2056,0.2086,0.2105,0.2108,0.213,0.212,0.2122,0.2122,0.2123,0.2251,0.2254,0,0,0,0,0,0,0.1929,0.1944,0.1952,0.196,0.1957,0.203,0.2035,0.2013,0.2054,0.2061,0.2056,0.2058,0.2103,0.2106,0.2109,0.2216,0.2122,0.2123,0.2124,0.2249,0.2252,0.2255,0,0,0,0,0,0,0.1927,0.1926,0.1948,0.1961,0.1969,0.2029,0.2005,0.2015,0.2054,0.2072,0.2078,0.2087,0.2103,0.2107,0.2146,0.2214,0.2124,0.2125,0.2246,0.225,0.2253,0.237,0,0,0,0,0,0,0.1926,0.1924,0.1942,0.1957,0.1967,0.2005,0.2006,0.2017,0.2066,0.207,0.21,0.2103,0.2103,0.2144,0.2147,0.2214,0.2126,0.2243,0.2248,0.2252,0.2363,0.2377,0.2389,0,0,0,0,0,0.1924,0.1946,0.1941,0.1945,0.1974,0.2007,0.202,0.2062,0.2067,0.2094,0.2115,0.2103,0.2177,0.2146,0.215,0.2219,0.224,0.2246,0.2252,0.2357,0.2374,0.2389,0,0,0,0,0,0,0.1919,0.1953,0.1948,0.1966,0.199,0.2016,0.2064,0.2074,0.2114,0.2129,0.2125,0.2129,0.2198,0.2184,0.215,0.227,0.2211,0.2217,0.229,0.2306,0.2319,0.2316,0.2128,0,0,0,0,0,0.193,0.1985,0.198,0.2006,0.2011,0.2036,0.2069,0.2089,0.2114,0.2134,0.2153,0.2182,0.2223,0.2241,0.2271,0.2322,0.23,0.2372,0.2385,0.2396,0.2397,0.2402,0.2415,0.2273,0.2273,0.2273,0,0,0.1934,0.1969,0.1993,0.2018,0.2038,0.2067,0.2055,0.2107,0.2151,0.213,0.2205,0.2231,0.2247,0.2321,0.235,0.2317,0.2434,0.2403,0.2413,0.2407,0.2409,0.2422,0.2434,0.2277,0.2276,0.2276,0,0,0.199,0.1987,0.2054,0.2066,0.2117,0.2131,0.2143,0.2173,0.2206,0.228,0.2279,0.2338,0.2399,0.2423,0.2442,0.254,0.2507,0.256,0.2622,0.2628,0.2639,0.2648,0.2672,0.2682,0.2562,0.2562,0.2562,0,0.2038,0.2036,0.2076,0.2121,0.2135,0.2152,0.2179,0.2223,0.2275,0.2298,0.2325,0.2442,0.2455,0.253,0.2574,0.2573,0.2566,0.2562,0.2644,0.2653,0.266,0.2681,0.2691,0.2568,0.2568,0.2567,0.2566,0,0.2058,0.2102,0.213,0.2192,0.2231,0.2247,0.2285,0.2335,0.2387,0.2423,0.2529,0.2578,0.2629,0.267,0.2659,0.2729,0.2707,0.2663,0.26,0.2681,0.2699,0.2708,0.2577,0.2575,0.2573,0.2572,0,0,0.2101,0.2146,0.2161,0.2189,0.2246,0.2274,0.2356,0.2404,0.245,0.2558,0.2616,0.2739,0.2756,0.2777,0.2786,0.2813,0.2881,0.2767,0.2764,0.2784,0.2907,0.2752,0.2746,0.2844,0.2845,0.2846,0.291,0,0.2117,0.2167,0.2201,0.2274,0.229,0.2331,0.2423,0.2495,0.2542,0.2606,0.269,0.276,0.2798,0.2831,0.2873,0.2865,0.2902,0.2868,0.2829,0.2829,0.2675,0.275,0.2551,0.2577,0.2917,0.2919,0.2919,0,0.2119,0.2159,0.219,0.2307,0.232,0.2387,0.2469,0.2538,0.2628,0.2688,0.2764,0.2791,0.2876,0.2877,0.2961,0.2934,0.2933,0.2942,0.2943,0.2755,0.2687,0.2545,0.2578,0.2932,0.2931,0.293,0.2929,0,0.2078,0.2169,0.2181,0.2194,0.2321,0.238,0.2453,0.2559,0.2608,0.2688,0.2736,0.2838,0.2889,0.2929,0.2958,0.2951,0.3019,0.2997,0.2876,0.2866,0.2665,0.2633,0.3041,0.3041,0.304,0.304,0.304,0,0.2051,0.2088,0.2165,0.2167,0.2249,0.2365,0.2435,0.2532,0.2637,0.2675,0.2755,0.2799,0.2898,0.2931,0.296,0.2945,0.3023,0.2898,0.2867,0.2702,0.2674,0.2941,0.2929,0.3043,0.3042,0.3042,0.3041,0,0.2014,0.2034,0.2069,0.2178,0.2228,0.2274,0.2404,0.2456,0.2586,0.262,0.2649,0.2774,0.2819,0.2894,0.2945,0.2925,0.293,0.2896,0.2706,0.2648,0.2783,0.2777,0.2781,0.2776,0.2772,0.2768,0.2765,0,0.1966,0.199,0.2046,0.2064,0.2111,0.2186,0.2268,0.2412,0.2458,0.258,0.2612,0.2668,0.2668,0.2723,0.2711,0.2728,0.2823,0.2525,0.2463,0.2785,0.2756,0.2756,0.2755,0.2279,0.2273,0.2267,0.2263,0,0.1927,0.195,0.1976,0.1995,0.2044,0.2076,0.2189,0.2218,0.2365,0.2401,0.2449,0.2439,0.2488,0.2391,0.2404,0.2389,0.2505,0.2406,0.2797,0.2346,0.2308,0.228,0.2297,0.2214,0.2218,0.2222,0.2225,0.2227,0.1902,0.1896,0.1926,0.1941,0.1982,0.1993,0.1969,0.2061,0.2087,0.2125,0.2217,0.2157,0.2192,0.2086,0.2029,0.2004,0.2182,0.2104,0.2124,0.2149,0.2049,0.2001,0.1835,0.1837,0.184,0.1842,0.1844,0,0.1849,0.1871,0.189,0.1877,0.1866,0.192,0.1953,0.1892,0.1845,0.1892,0.1887,0.1712,0.1647,0.1699,0.1583,0.1568,0.1592,0.1503,0.1537,0.1586,0.163,0.1507,0.1148,0.1146,0.1143,0.1141,0,0,0.1827,0.1815,0.1821,0.1775,0.178,0.1703,0.1676,0.1595,0.1585,0.1479,0.1437,0.1563,0.1628,0.1366,0.1337,0.122,0.1392,0.1165,0.1727,0.1817,0.1858,0.1982,0.1847,0,0,0,0,0]},{"header":{"parameterUnit":"m.s-1","parameterCategory":2,"la1":30.2991,"la2":30.254,"lo1":-89.0895,"lo2":-89.0444,"dy":0.0017,"dx":0.0017,"nx":28,"ny":28,"refTime":"2025-03-17T09:00:00:Z","depth":"2","parameterNumber":3,"parameterNumberName":"V-component_of_CURRENTS"},"data":[0,0,0,0,0,0,0,0,0,0,0,0,0,0,0,0,0,0,0,0,0,0,0,0,0,0,0,0,0,0,0,0,0,0,0,0,0,0,0,0,0,0,0,0,0,0,0,0,0,0,0,0,0,0,0,0,0,0,0.0753,0.0753,0,0.0713,0.0712,0.0711,0.0667,0.0667,0.0667,0.0667,0.0584,0.0582,0.058,0,0,0,0,0,0,0,0,0,0,0,0,0,0.0698,0.0699,0.0753,0.0753,0.0753,0.0713,0.0712,0.0711,0.0667,0.0667,0.0667,0.0667,0.0585,0.0582,0.0579,0,0,0,0,0,0,0,0,0,0,0,0,0,0.069,0.0699,0.0753,0.0731,0.0729,0.0713,0.0712,0.071,0.0667,0.0667,0.0667,0.0667,0.0585,0.0582,0.0579,0.056,0,0,0.0569,0.0568,0,0,0,0,0,0,0,0,0.0691,0.0692,0.0734,0.0733,0.0731,0.07,0.0662,0.066,0.0667,0.0684,0.0667,0.0667,0.0623,0.0617,0.0601,0.0556,0.0553,0.0569,0.0567,0.0565,0.0564,0,0,0,0,0,0,0,0.0691,0.0693,0.0731,0.0735,0.0732,0.0692,0.0691,0.0661,0.0649,0.0683,0.0681,0.0686,0.0621,0.0604,0.0599,0.0552,0.0569,0.0566,0.0564,0.0563,0.0487,0.0487,0,0,0,0,0,0,0.0715,0.0694,0.0732,0.073,0.0717,0.0694,0.0692,0.0705,0.065,0.0644,0.0687,0.0685,0.061,0.0602,0.0595,0.0579,0.0565,0.0562,0.056,0.0487,0.0487,0.0487,0,0,0,0,0,0,0.0714,0.0719,0.0734,0.0715,0.0715,0.0696,0.071,0.0704,0.0688,0.0655,0.0646,0.0677,0.0609,0.06,0.0579,0.0575,0.0561,0.0558,0.0487,0.0487,0.0487,0.0541,0,0,0,0,0,0,0.0712,0.0719,0.0723,0.0717,0.0717,0.0723,0.0711,0.0704,0.0695,0.0692,0.0644,0.0636,0.0609,0.0584,0.0575,0.0571,0.0555,0.0487,0.0487,0.0487,0.0539,0.0542,0.0545,0,0,0,0,0,0.071,0.0723,0.0724,0.0728,0.0729,0.0724,0.0719,0.07,0.0695,0.0684,0.0664,0.0637,0.0577,0.0582,0.0572,0.0566,0.0487,0.0487,0.0487,0.0537,0.0542,0.0545,0,0,0,0,0,0,0.071,0.0721,0.0721,0.0739,0.0732,0.0719,0.0714,0.0703,0.0676,0.0676,0.064,0.0631,0.0609,0.0581,0.0587,0.0543,0.0525,0.0523,0.0567,0.0571,0.0574,0.0564,0.0553,0,0,0,0,0,0.0714,0.0713,0.0725,0.0732,0.0741,0.0727,0.072,0.0711,0.0696,0.0684,0.0652,0.0621,0.06,0.0582,0.0553,0.0531,0.0497,0.0518,0.0522,0.0525,0.0509,0.0473,0.0472,0.0486,0.0486,0.0486,0,0,0.0714,0.0719,0.0719,0.0729,0.0727,0.0737,0.0721,0.0719,0.0722,0.0679,0.0663,0.0631,0.0597,0.0575,0.0561,0.0551,0.0505,0.0524,0.0527,0.0509,0.0473,0.0472,0.047,0.0486,0.0486,0.0486,0,0,0.0711,0.0727,0.0726,0.0736,0.0741,0.0736,0.0741,0.0731,0.0724,0.0704,0.0683,0.0647,0.0606,0.0579,0.0564,0.0563,0.0525,0.0558,0.0562,0.0529,0.0528,0.0526,0.0492,0.0486,0.0558,0.0558,0.0558,0,0.0703,0.0727,0.0722,0.0738,0.0753,0.0744,0.0759,0.0754,0.0731,0.0722,0.0704,0.0633,0.0603,0.0581,0.058,0.0569,0.0547,0.0556,0.0534,0.0532,0.0529,0.0494,0.0487,0.056,0.056,0.056,0.0559,0,0.0717,0.0737,0.0747,0.0762,0.0764,0.0783,0.0792,0.0789,0.0772,0.0748,0.0712,0.0662,0.0617,0.0604,0.059,0.0561,0.0552,0.0547,0.0528,0.0531,0.0494,0.0486,0.0564,0.0563,0.0562,0.0562,0,0,0.0681,0.0743,0.0743,0.0767,0.0791,0.0794,0.0814,0.0815,0.0826,0.077,0.0757,0.0695,0.0652,0.0631,0.0604,0.0564,0.053,0.055,0.0547,0.0521,0.0459,0.0437,0.0426,0.0532,0.053,0.0529,0.0444,0,0.0689,0.0734,0.0756,0.0789,0.0817,0.0838,0.0853,0.0847,0.0835,0.082,0.0755,0.0725,0.0674,0.0655,0.0606,0.0559,0.051,0.0553,0.0453,0.045,0.0435,0.0416,0.0444,0.0369,0.0437,0.0435,0.0434,0,0.0686,0.072,0.0767,0.0819,0.0834,0.0844,0.0874,0.0888,0.0876,0.0866,0.0815,0.0773,0.0708,0.0668,0.0552,0.0587,0.0517,0.0465,0.0461,0.0411,0.0413,0.0373,0.0352,0.0421,0.0422,0.0423,0.0424,0,0.0654,0.0719,0.0758,0.0784,0.0842,0.0857,0.0873,0.088,0.091,0.0891,0.0895,0.0808,0.0773,0.0669,0.056,0.056,0.0434,0.0425,0.0328,0.0326,0.031,0.0309,0.0323,0.0323,0.0323,0.0324,0.0324,0,0.0656,0.0684,0.075,0.0778,0.0818,0.0842,0.0884,0.09,0.0924,0.0953,0.0906,0.0905,0.0773,0.0694,0.0578,0.0431,0.0444,0.0311,0.0297,0.0331,0.0332,0.0344,0.0348,0.032,0.0321,0.0322,0.0322,0,0.0616,0.0671,0.0724,0.0791,0.0809,0.0831,0.0911,0.0947,0.0967,0.101,0.1007,0.0973,0.0873,0.0737,0.0578,0.0463,0.0324,0.0267,0.0314,0.0305,0.023,0.0237,0.0138,0.0137,0.0135,0.0134,0.0133,0,0.0611,0.0632,0.0722,0.0766,0.0801,0.0854,0.0898,0.0951,0.1003,0.1051,0.1067,0.1002,0.0957,0.072,0.0527,0.0318,0.0298,0.0193,0.0179,0.0212,0.0208,0.0217,0.0226,0.0183,0.0182,0.0182,0.0182,0,0.0597,0.0627,0.0678,0.0763,0.0823,0.091,0.0974,0.1026,0.1095,0.1131,0.1159,0.1126,0.0931,0.0736,0.047,0.033,0.0229,0.0177,0.0199,0.0229,0.0248,0.0246,0.0254,0.0178,0.0178,0.0179,0.0179,0.0179,0.0586,0.0618,0.0689,0.0772,0.0849,0.0949,0.1013,0.1094,0.1171,0.1228,0.1206,0.1155,0.0968,0.0617,0.0404,0.0187,0.0192,0.0103,0.0107,0.011,0.0134,0.015,0.0066,0.0066,0.0066,0.0065,0.0065,0,0.0582,0.0628,0.0698,0.0811,0.0894,0.0943,0.1059,0.1124,0.1208,0.1245,0.1255,0.1048,0.0848,0.063,0.0315,0.0114,0.0111,0.0042,0.0095,0.0099,0.0103,0.0129,0.0058,0.0057,0.0056,0.0056,0,0,0.0587,0.0649,0.0691,0.0827,0.0905,0.1016,0.1084,0.1166,0.1217,0.1232,0.1201,0.1157,0.0905,0.0668,0.042,0.0244,0.021,0.0199,0.0227,0.0325,0.0331,0.0162,0.0209,0,0,0,0,0]}],[{"header":{"parameterUnit":"m.s-1","parameterCategory":2,"la1":30.2991,"la2":30.254,"lo1":-89.0895,"lo2":-89.0444,"dy":0.0017,"dx":0.0017,"nx":28,"ny":28,"refTime":"2025-03-17T09:00:00:Z","depth":"4","parameterNumber":2,"parameterNumberName":"U-component_of_CURRENTS"},"data":[0,0,0,0,0,0,0,0,0,0,0,0,0,0,0,0,0,0,0,0,0,0,0,0,0,0,0,0,0,0,0,0,0,0,0,0,0,0,0,0,0,0,0,0,0,0,0,0,0,0,0,0,0,0,0,0,0,0,0.072,0.072,0,0.0729,0.0729,0.0729,0.0748,0.0749,0.0749,0.0749,0.0843,0.0845,0.0847,0,0,0,0,0,0,0,0,0,0,0,0,0,0.0731,0.0731,0.072,0.072,0.072,0.0729,0.0729,0.0729,0.0748,0.0749,0.0749,0.075,0.0842,0.0845,0.0847,0,0,0,0,0,0,0,0,0,0,0,0,0,0.0732,0.0731,0.072,0.073,0.0731,0.0729,0.0729,0.0729,0.0748,0.0749,0.0749,0.075,0.0841,0.0845,0.0848,0.0858,0,0,0.0858,0.0859,0,0,0,0,0,0,0,0,0.0732,0.0732,0.0729,0.073,0.0731,0.0737,0.0767,0.0776,0.0748,0.0743,0.0749,0.075,0.0815,0.082,0.0821,0.0863,0.0867,0.0858,0.086,0.0861,0.0862,0,0,0,0,0,0,0,0.0732,0.0732,0.0724,0.0729,0.073,0.0738,0.0739,0.0769,0.0778,0.0743,0.0744,0.0744,0.0816,0.0817,0.0823,0.0868,0.0858,0.0861,0.0863,0.0864,0.1016,0.1018,0,0,0,0,0,0,0.0728,0.0732,0.0724,0.0725,0.0732,0.0737,0.0738,0.0735,0.0776,0.0782,0.0744,0.0745,0.0811,0.0819,0.0827,0.0906,0.0861,0.0865,0.0866,0.1014,0.1017,0.1019,0,0,0,0,0,0,0.0728,0.0727,0.0724,0.0728,0.0728,0.0737,0.0733,0.0735,0.0757,0.0775,0.0783,0.0765,0.0812,0.0822,0.0875,0.0908,0.0866,0.0869,0.1012,0.1015,0.1018,0.1024,0,0,0,0,0,0,0.0729,0.0727,0.0733,0.0727,0.0728,0.0735,0.0733,0.0735,0.0754,0.0756,0.0796,0.0804,0.0813,0.087,0.0878,0.0911,0.0872,0.1009,0.1013,0.1017,0.1021,0.1027,0.1032,0,0,0,0,0,0.0729,0.0726,0.0733,0.0732,0.0731,0.0736,0.0737,0.0745,0.0755,0.0767,0.0799,0.0803,0.0901,0.0874,0.0883,0.0918,0.1007,0.1012,0.1016,0.1019,0.1026,0.1032,0,0,0,0,0,0,0.0732,0.0727,0.0735,0.0731,0.0742,0.0739,0.0751,0.0758,0.0789,0.0805,0.0822,0.0832,0.0886,0.091,0.0879,0.0977,0.0959,0.0965,0.0958,0.0965,0.097,0.1003,0.0874,0,0,0,0,0,0.0735,0.0736,0.0737,0.0739,0.0747,0.0756,0.0762,0.0772,0.0792,0.0807,0.0835,0.0876,0.0909,0.0942,0.0969,0.1027,0.1049,0.1061,0.1066,0.107,0.1106,0.1164,0.1177,0.1034,0.1034,0.1034,0,0,0.0741,0.0736,0.074,0.0741,0.0753,0.0766,0.0762,0.0782,0.0807,0.0815,0.0869,0.0888,0.0925,0.0978,0.1008,0.1007,0.1116,0.1076,0.1079,0.1114,0.117,0.1184,0.1196,0.1037,0.1037,0.1036,0,0,0.0745,0.075,0.0754,0.0763,0.078,0.0787,0.0798,0.0816,0.0842,0.0888,0.0899,0.0954,0.1001,0.1041,0.1065,0.1127,0.1129,0.113,0.1199,0.1253,0.1265,0.1276,0.1284,0.1296,0.1148,0.1148,0.1148,0,0.0753,0.0754,0.0758,0.0765,0.0779,0.08,0.0818,0.0844,0.0881,0.092,0.0915,0.1011,0.1039,0.1116,0.1141,0.1141,0.1153,0.1161,0.1258,0.127,0.1281,0.1287,0.13,0.1149,0.1149,0.1148,0.1148,0,0.0765,0.0768,0.0774,0.0791,0.0808,0.0829,0.0861,0.0899,0.0935,0.097,0.1054,0.109,0.1161,0.1169,0.1178,0.1275,0.1248,0.1239,0.1234,0.1295,0.1298,0.1311,0.115,0.115,0.1149,0.1149,0,0,0.078,0.078,0.0787,0.0797,0.0827,0.0844,0.0896,0.0957,0.1011,0.1066,0.1143,0.1214,0.1252,0.1286,0.1301,0.136,0.1432,0.1346,0.1348,0.1341,0.152,0.1392,0.1394,0.1432,0.1435,0.1438,0.1475,0,0.0794,0.0802,0.0807,0.0837,0.0849,0.0885,0.093,0.0994,0.1056,0.1137,0.1213,0.129,0.129,0.1333,0.1393,0.1428,0.1475,0.1422,0.1476,0.1478,0.1347,0.1409,0.1448,0.1485,0.1488,0.149,0.1492,0,0.0813,0.0813,0.0835,0.0859,0.0873,0.0903,0.0993,0.1039,0.1154,0.1207,0.1306,0.1362,0.1479,0.1457,0.1569,0.153,0.1546,0.1558,0.1559,0.146,0.1377,0.1424,0.1516,0.1514,0.1512,0.151,0.1509,0,0.0824,0.0839,0.0857,0.0866,0.0898,0.0937,0.0978,0.1076,0.1138,0.1274,0.1339,0.1458,0.1532,0.1592,0.1637,0.1616,0.1725,0.1693,0.1584,0.1573,0.167,0.1659,0.1776,0.1776,0.1776,0.1776,0.1776,0,0.0826,0.0843,0.0867,0.0874,0.0924,0.0954,0.1035,0.1094,0.1198,0.1281,0.139,0.1462,0.1576,0.1646,0.1668,0.1665,0.1755,0.162,0.1593,0.1665,0.1654,0.1676,0.1664,0.1777,0.1777,0.1776,0.1776,0,0.0817,0.0831,0.0854,0.0898,0.0922,0.0967,0.1055,0.1105,0.1212,0.132,0.1375,0.1501,0.1583,0.1653,0.1738,0.169,0.1708,0.1677,0.1739,0.171,0.1506,0.1494,0.157,0.1566,0.1563,0.156,0.1558,0,0.0807,0.0812,0.0871,0.0889,0.0909,0.0976,0.1013,0.1111,0.116,0.1325,0.1363,0.1493,0.1565,0.1579,0.1646,0.1666,0.1644,0.1629,0.1593,0.1528,0.1495,0.1488,0.1481,0.1553,0.1552,0.1551,0.155,0,0.078,0.0811,0.0824,0.0864,0.0904,0.095,0.1012,0.1043,0.1156,0.1268,0.134,0.1399,0.1467,0.1513,0.1533,0.1545,0.1634,0.1595,0.1602,0.1567,0.1508,0.1477,0.1473,0.1539,0.1541,0.1542,0.1542,0,0.0769,0.0767,0.079,0.0823,0.0869,0.0895,0.0942,0.0987,0.1053,0.1218,0.1234,0.1357,0.1456,0.1449,0.1473,0.1473,0.1449,0.1399,0.1415,0.1428,0.1363,0.1266,0.1223,0,0,0,0,0,0.075,0.0724,0.0741,0.0764,0.0808,0.0845,0.0917,0.096,0.1072,0.1094,0.1163,0.1225,0.1275,0.1325,0.1296,0.1393,0.1444,0.1351,0.1391,0.1478,0.149,0.1426,0,0,0,0,0,0,0.0724,0.0726,0.0716,0.0714,0.0719,0.0764,0.081,0.0886,0.0897,0.1019,0.105,0.1146,0.1205,0.1287,0.1275,0.1288,0.1284,0.1419,0.1415,0.147,0.1482,0.1492,0.1431,0,0,0,0,0]},{"header":{"parameterUnit":"m.s-1","parameterCategory":2,"la1":30.2991,"la2":30.254,"lo1":-89.0895,"lo2":-89.0444,"dy":0.0017,"dx":0.0017,"nx":28,"ny":28,"refTime":"2025-03-17T09:00:00:Z","depth":"4","parameterNumber":3,"parameterNumberName":"V-component_of_CURRENTS"},"data":[0,0,0,0,0,0,0,0,0,0,0,0,0,0,0,0,0,0,0,0,0,0,0,0,0,0,0,0,0,0,0,0,0,0,0,0,0,0,0,0,0,0,0,0,0,0,0,0,0,0,0,0,0,0,0,0,0,0,0.0527,0.0527,0,0.0523,0.0523,0.0523,0.0528,0.0529,0.0529,0.0529,0.0526,0.0525,0.0525,0,0,0,0,0,0,0,0,0,0,0,0,0,0.0489,0.049,0.0527,0.0527,0.0527,0.0523,0.0523,0.0522,0.0528,0.0529,0.0529,0.0529,0.0526,0.0525,0.0525,0,0,0,0,0,0,0,0,0,0,0,0,0,0.0497,0.049,0.0527,0.053,0.053,0.0523,0.0523,0.0522,0.0528,0.0529,0.0529,0.053,0.0526,0.0525,0.0525,0.0513,0,0,0.0523,0.0523,0,0,0,0,0,0,0,0,0.0496,0.0498,0.0529,0.0529,0.053,0.0527,0.0508,0.052,0.0528,0.0528,0.0529,0.053,0.0526,0.0526,0.0523,0.0513,0.0513,0.0523,0.0523,0.0523,0.0522,0,0,0,0,0,0,0,0.0496,0.0498,0.0524,0.0529,0.0529,0.0514,0.0516,0.051,0.0524,0.0528,0.0529,0.0529,0.0526,0.0523,0.0523,0.0513,0.0523,0.0523,0.0522,0.0522,0.0516,0.0516,0,0,0,0,0,0,0.05,0.0498,0.0524,0.0524,0.0514,0.0515,0.0517,0.0527,0.0524,0.0525,0.0529,0.053,0.0524,0.0524,0.0523,0.0543,0.0523,0.0522,0.0522,0.0516,0.0516,0.0516,0,0,0,0,0,0,0.05,0.0503,0.0525,0.0511,0.0513,0.0515,0.0526,0.0527,0.0533,0.0525,0.0525,0.0537,0.0525,0.0524,0.0525,0.0542,0.0522,0.0521,0.0515,0.0516,0.0516,0.0562,0,0,0,0,0,0,0.0499,0.0503,0.0513,0.0512,0.0514,0.0525,0.0526,0.0526,0.0533,0.0534,0.0532,0.0531,0.0525,0.0526,0.0524,0.0541,0.0521,0.0515,0.0516,0.0516,0.056,0.0563,0.0566,0,0,0,0,0,0.0497,0.0507,0.0514,0.0517,0.0528,0.0525,0.0524,0.0526,0.0533,0.0534,0.0535,0.0532,0.0527,0.0525,0.0524,0.054,0.0515,0.0515,0.0516,0.0558,0.0563,0.0566,0,0,0,0,0,0,0.0496,0.0508,0.0516,0.053,0.0531,0.0526,0.0532,0.0532,0.0533,0.0541,0.0532,0.0532,0.0539,0.0529,0.0528,0.0537,0.0521,0.0521,0.0554,0.0557,0.0561,0.0558,0.052,0,0,0,0,0,0.0501,0.0515,0.0518,0.0531,0.0535,0.0536,0.0537,0.054,0.054,0.0542,0.054,0.0538,0.0537,0.0539,0.0533,0.0538,0.0497,0.0547,0.055,0.0553,0.0548,0.0493,0.049,0.0517,0.0517,0.0517,0,0,0.0505,0.0513,0.0522,0.0532,0.0538,0.0549,0.0538,0.0547,0.0559,0.054,0.0559,0.0549,0.0539,0.0547,0.0549,0.0543,0.0523,0.0553,0.0556,0.055,0.0493,0.049,0.0488,0.0517,0.0517,0.0517,0,0,0.0516,0.053,0.0544,0.055,0.0561,0.0561,0.0566,0.0569,0.0576,0.0586,0.0577,0.0572,0.0576,0.0567,0.0565,0.0579,0.054,0.0584,0.0602,0.0549,0.0546,0.0543,0.0485,0.0477,0.0588,0.0588,0.0588,0,0.0517,0.0543,0.0545,0.0561,0.0572,0.0571,0.0589,0.0593,0.0596,0.0599,0.06,0.0588,0.0584,0.0581,0.0593,0.0587,0.0546,0.0593,0.0553,0.0549,0.0545,0.0486,0.0476,0.059,0.059,0.059,0.059,0,0.054,0.0563,0.0572,0.0598,0.0607,0.0621,0.063,0.0638,0.0647,0.0647,0.0646,0.0628,0.0618,0.062,0.0617,0.0594,0.057,0.0562,0.0544,0.0545,0.0483,0.0472,0.0594,0.0593,0.0592,0.0592,0,0,0.053,0.0579,0.0583,0.0603,0.063,0.0635,0.0663,0.0675,0.0683,0.0683,0.068,0.0681,0.0662,0.0656,0.064,0.0601,0.0545,0.0577,0.0573,0.052,0.0418,0.0414,0.04,0.0529,0.0527,0.0526,0.0385,0,0.0546,0.0583,0.0606,0.0643,0.0663,0.0679,0.07,0.0711,0.0715,0.0709,0.0689,0.0682,0.0679,0.067,0.0633,0.0567,0.0518,0.0584,0.0423,0.0418,0.0415,0.0388,0.0521,0.0376,0.0373,0.0371,0.037,0,0.0551,0.0581,0.0623,0.0666,0.0677,0.07,0.0723,0.0743,0.0741,0.0741,0.0726,0.0703,0.0663,0.065,0.0533,0.0575,0.0501,0.0443,0.0436,0.0407,0.0393,0.0373,0.0349,0.035,0.0352,0.0353,0.0355,0,0.0527,0.0584,0.0619,0.0637,0.0688,0.0711,0.0737,0.0751,0.0767,0.0755,0.0747,0.0698,0.0661,0.0573,0.0478,0.0497,0.0326,0.0334,0.0252,0.0251,0.0277,0.0282,0.0229,0.0229,0.0229,0.023,0.023,0,0.0521,0.0547,0.0614,0.0634,0.0676,0.0711,0.0744,0.0761,0.0772,0.078,0.0761,0.0731,0.0638,0.0543,0.0458,0.032,0.0307,0.0241,0.0211,0.03,0.0309,0.0268,0.0275,0.0224,0.0225,0.0226,0.0227,0,0.0485,0.0529,0.0574,0.0643,0.0668,0.0698,0.0763,0.0777,0.0792,0.0794,0.079,0.0735,0.0621,0.0514,0.0351,0.0288,0.0161,0.011,0.0201,0.0181,0.0122,0.0133,0.0003,0.0002,0.0,-0.0001,-0.0001,0,0.0469,0.0491,0.0578,0.0611,0.065,0.0705,0.0739,0.0782,0.0799,0.0792,0.0781,0.0687,0.0637,0.0399,0.0294,0.0113,0.0098,0.0024,0.0088,0.0114,0.0097,0.011,0.0122,-0.0003,-0.0004,-0.0004,-0.0004,0,0.0445,0.0481,0.0521,0.0596,0.0646,0.0703,0.0756,0.0765,0.0805,0.0812,0.076,0.0666,0.0529,0.0385,0.024,0.0118,0.0074,0.0012,0.0014,0.0074,0.0104,0.0092,0.0105,-0.0008,-0.0008,-0.0007,-0.0007,0,0.0425,0.0448,0.051,0.0575,0.0636,0.0689,0.0722,0.0745,0.0766,0.0769,0.074,0.0629,0.0566,0.0384,0.0252,0.0133,0.0115,0.0086,0.0084,0.0087,0.0171,0.0226,0.0111,0,0,0,0,0,0.0407,0.0436,0.0489,0.0561,0.062,0.0667,0.0727,0.0756,0.0786,0.0749,0.0754,0.0638,0.046,0.0382,0.0259,0.0227,0.0088,0.008,0.0052,-0.0031,-0.0026,0.006,0,0,0,0,0,0,0.0394,0.0439,0.0476,0.0539,0.0585,0.0654,0.0696,0.0721,0.0708,0.072,0.0624,0.0603,0.0424,0.0524,0.0253,0.0219,0.0184,0.0005,0.0002,-0.0034,-0.0029,-0.0025,0.0065,0,0,0,0,0]}]]